Regional Weather Roundup
Issued by NWS

Home | Current Version | Previous Version | Text Only | Print | Product List | Glossary On
Versions: 1 2 3 4 5 6 7 8 9 10 11 12 13 14 15 16 17 18 19 20 21 22 23 24 25 26 27 28 29 30 31 32 33 34 35 36 37 38 39 40 41 42 43 44 45 46 47 48 49 50
000
ASUS43 KFSD 140310
RWRSD

WEATHER ROUNDUP FOR SOUTH DAKOTA
NATIONAL WEATHER SERVICE SIOUX FALLS SD
900 PM CST WED DEC 13 2017

NOTE: "FAIR" INDICATES FEW OR NO CLOUDS BELOW 12,000 FEET WITH NO
SIGNIFICANT WEATHER AND/OR OBSTRUCTIONS TO VISIBILITY.


SDZ001>005-009-010-012>017-140400-
NORTHWEST AND NORTH CENTRAL SOUTH DAKOTA

CITY           SKY/WX    TMP DP  RH WIND       PRES   REMARKS
BUFFALO          N/A     34  26  72 W13       30.00S WCI  25
FAITH            N/A     34  24  67 NW17      30.02S WCI  23
MOBRIDGE       CLEAR     28  24  85 NW3       29.98S
$$

SDZ012>016-024>037-041>051-057-063-072>074-140400-
SOUTHWEST AND SOUTH CENTRAL SOUTH DAKOTA

CITY           SKY/WX    TMP DP  RH WIND       PRES   REMARKS
RAPID CTY ARPT CLOUDY    39  24  55 NW20      30.06S
PIERRE         CLOUDY    31  26  82 N9        30.02R WCI  23
CUSTER         CLOUDY    32  17  54 NW7       30.03S WCI  26
ELLSWORTH AFB  CLOUDY    39  24  54 NW20      30.05R
PHILIP         CLOUDY    39  24  55 NW12      30.05R
PINE RIDGE     CLOUDY    38  24  57 N13       30.07S
SPEARFISH      CLOUDY    36  23  60 W16G24    30.10R
WINNER         FAIR      31  24  75 NW6       30.03R WCI  25
$$

SDZ004>011-016>023-039-040-140400-
NORTHEAST SOUTH DAKOTA

CITY           SKY/WX    TMP DP  RH WIND       PRES   REMARKS
ABERDEEN       CLOUDY    33  26  75 NW9       29.97R WCI  25
WATERTOWN      CLOUDY    27  25  92 N12       29.92R WCI  17
BROOKINGS      CLOUDY    27  24  89 N12       29.92S WCI  17
SISSETON         N/A     24  21  88 N10       29.96S WCI  14
$$

SDZ017-020-022-023-036>040-048>070-140400-
SOUTHEAST SOUTH DAKOTA

CITY           SKY/WX    TMP DP  RH WIND       PRES   REMARKS
SIOUX FALLS    CLOUDY    33  28  81 NW14      29.94R WCI  23
HURON          CLOUDY    35  24  64 N13       29.98R WCI  26
CHAMBERLAIN    CLOUDY    37  28  71 NW15      30.01S
MITCHELL       CLOUDY    36  24  62 N15       29.99R
YANKTON        CLOUDY    37  25  61 NW15      29.97R
$$

ABBREVIATIONS USED IN REMARKS
   TC - TEMPERATURE IN CELSIUS
  WCI - WIND CHILL INDEX
   HX - HEAT INDEX
  VSB - VISIBILITY





USA.gov is the U.S. government's official web portal to all federal, state and local government web resources and services.